Time,TemperatureF,DewpointF,PressureIn,WindDirection,WindDirectionDegrees,WindSpeedMPH,WindSpeedGustMPH,Humidity,HourlyPrecipIn,Conditions,Clouds,dailyrainin,SoftwareType,DateUTC
2013-12-01 00:01:00,30.4,15.8,29.38,WSW,239,2.9,6.0,50,-99.99,,,-99.99,WSDL version 420,2013-12-01 05:01:00,
2013-12-01 00:03:00,30.4,15.8,29.38,SSW,210,3.5,6.0,50,0.00,,,0.00,WSDL version 420,2013-12-01 05:03:00,
2013-12-01 00:05:00,30.4,15.8,-100.00,SW,225,2.9,6.0,50,0.00,,,0.00,WSDL version 420,2013-12-01 05:05:00,
2013-12-01 00:09:00,30.4,16.2,-100.00,SSW,207,3.4,6.0,51,0.00,,,0.00,WSDL version 420,2013-12-01 05:09:00,
2013-12-01 00:16:00,30.4,16.2,29.38,WSW,239,3.1,4.9,51,0.00,,,0.00,WSDL version 420,2013-12-01 05:16:00,
2013-12-01 00:24:00,30.6,16.4,29.38,SW,214,3.7,6.5,51,0.00,,,0.00,WSDL version 420,2013-12-01 05:24:00,
2013-12-01 00:28:00,30.6,16.4,29.38,WSW,239,3.4,6.5,51,0.00,,,0.00,WSDL version 420,2013-12-01 05:28:00,
2013-12-01 00:30:00,30.6,16.4,29.38,SW,236,4.1,6.9,51,0.00,,,0.00,WSDL version 420,2013-12-01 05:30:00,
2013-12-01 00:38:00,30.6,16.4,29.38,SSW,210,2.9,6.9,51,0.00,,,0.00,WSDL version 420,2013-12-01 05:38:00,
2013-12-01 00:44:00,30.6,16.4,29.38,SW,236,3.4,4.7,51,0.00,,,0.00,WSDL version 420,2013-12-01 05:44:00,
2013-12-01 00:52:00,30.6,16.7,29.38,SW,233,2.6,7.6,52,0.00,,,0.00,WSDL version 420,2013-12-01 05:52:00,
2013-12-01 00:58:00,30.6,16.7,-100.00,SW,219,3.5,6.0,52,0.00,,,0.00,WSDL version 420,2013-12-01 05:58:00,
2013-12-01 01:04:00,30.6,16.5,29.38,SW,229,3.8,6.0,51,0.00,,,0.00,WSDL version 420,2013-12-01 06:04:00,
2013-12-01 01:16:00,30.6,16.7,29.35,SW,236,3.2,5.8,52,0.00,,,0.00,WSDL version 420,2013-12-01 06:16:00,
2013-12-01 01:28:00,30.6,17.1,-100.00,SW,225,2.9,6.0,53,0.00,,,0.00,WSDL version 420,2013-12-01 06:28:00,
2013-12-01 01:34:00,30.6,17.1,29.35,SW,229,3.3,6.0,53,0.00,,,0.00,WSDL version 420,2013-12-01 06:34:00,
2013-12-01 01:40:00,30.6,17.1,-100.00,SW,230,3.4,5.8,53,0.00,,,0.00,WSDL version 420,2013-12-01 06:40:00,
2013-12-01 01:46:00,30.6,17.1,29.35,SW,221,3.0,5.6,53,0.00,,,0.00,WSDL version 420,2013-12-01 06:46:00,
2013-12-01 01:54:00,30.6,17.1,29.35,SW,225,3.2,6.5,53,0.00,,,0.00,WSDL version 420,2013-12-01 06:54:00,
2013-12-01 02:00:00,30.6,17.5,29.35,SW,225,2.9,5.8,54,0.00,,,0.00,WSDL version 420,2013-12-01 07:00:00,
2013-12-01 02:06:00,30.6,17.5,29.35,SW,218,2.6,6.5,54,0.00,,,0.00,WSDL version 420,2013-12-01 07:06:00,
2013-12-01 02:11:00,30.6,17.1,29.35,WSW,251,4.3,6.7,53,-99.99,,,-99.99,WSDL version 420,2013-12-01 07:11:00,
2013-12-01 02:17:00,30.6,17.3,29.35,SW,230,2.7,6.7,54,0.00,,,0.00,WSDL version 420,2013-12-01 07:17:00,
2013-12-01 02:23:00,30.6,17.4,-100.00,SSW,203,2.6,4.3,53,-99.99,,,-99.99,WSDL version 420,2013-12-01 07:23:00,
2013-12-01 02:32:00,30.6,17.5,29.35,SW,236,3.5,6.3,54,0.00,,,0.00,WSDL version 420,2013-12-01 07:32:00,
2013-12-01 02:42:00,30.6,17.5,-100.00,SW,236,3.1,6.5,54,0.00,,,0.00,WSDL version 420,2013-12-01 07:42:00,
2013-12-01 02:51:00,30.6,17.5,-100.00,SW,233,3.4,7.6,54,0.00,,,0.00,WSDL version 420,2013-12-01 07:51:00,
2013-12-01 02:57:00,30.6,17.5,29.35,WSW,248,4.3,6.3,54,0.00,,,0.00,WSDL version 420,2013-12-01 07:57:00,
2013-12-01 03:02:00,30.6,17.5,29.35,SW,219,2.9,6.3,54,0.00,,,0.00,WSDL version 420,2013-12-01 08:02:00,
2013-12-01 03:10:00,30.6,17.5,29.35,South,188,3.6,10.1,54,0.00,,,0.00,WSDL version 420,2013-12-01 08:10:00,
2013-12-01 03:16:00,30.6,17.5,29.35,SW,230,2.6,10.1,54,-99.99,,,-99.99,WSDL version 420,2013-12-01 08:16:00,
2013-12-01 03:23:00,30.4,17.5,29.32,South,188,3.1,5.6,54,0.00,,,0.00,WSDL version 420,2013-12-01 08:23:00,
2013-12-01 03:28:00,30.4,17.4,29.32,SSW,212,1.7,5.4,54,0.00,,,0.00,WSDL version 420,2013-12-01 08:28:00,
2013-12-01 03:34:00,30.4,17.4,29.32,SSW,207,3.4,9.8,54,-99.99,,,-99.99,WSDL version 420,2013-12-01 08:34:00,
2013-12-01 03:43:00,30.4,17.7,-100.00,WSW,248,3.4,5.8,55,-99.99,,,-99.99,WSDL version 420,2013-12-01 08:43:00,
2013-12-01 03:49:00,30.5,17.8,29.32,SW,219,2.9,5.6,55,0.00,,,0.00,WSDL version 420,2013-12-01 08:49:00,
2013-12-01 03:54:00,30.6,17.9,-100.00,SW,233,3.5,4.9,55,-99.99,,,-99.99,WSDL version 420,2013-12-01 08:54:00,
2013-12-01 04:00:00,30.6,17.9,29.32,SW,218,2.2,4.9,55,0.00,,,0.00,WSDL version 420,2013-12-01 09:00:00,
2013-12-01 04:06:00,30.6,17.9,-100.00,SW,225,3.0,5.4,55,0.00,,,0.00,WSDL version 420,2013-12-01 09:06:00,
2013-12-01 04:10:00,30.5,17.8,29.32,SSW,212,2.5,5.4,55,-99.99,,,-99.99,WSDL version 420,2013-12-01 09:10:00,
2013-12-01 04:16:00,30.6,17.9,-100.00,SW,230,3.0,5.8,55,0.00,,,0.00,WSDL version 420,2013-12-01 09:16:00,
2013-12-01 04:22:00,30.6,17.9,29.32,SW,221,3.2,6.3,55,-99.99,,,-99.99,WSDL version 420,2013-12-01 09:22:00,
2013-12-01 04:29:00,30.6,17.9,-100.00,South,188,3.2,4.7,55,0.00,,,0.00,WSDL version 420,2013-12-01 09:29:00,
2013-12-01 04:41:00,30.6,18.3,-100.00,SSW,194,2.8,5.6,56,0.00,,,0.00,WSDL version 420,2013-12-01 09:41:00,
2013-12-01 04:48:00,30.6,18.3,29.32,WSW,243,3.5,6.3,56,0.00,,,0.00,WSDL version 420,2013-12-01 09:48:00,
2013-12-01 04:58:00,30.7,18.4,29.32,WSW,240,3.2,5.8,56,0.00,,,0.00,WSDL version 420,2013-12-01 09:58:00,
2013-12-01 05:03:00,30.7,18.4,29.32,WSW,248,2.1,5.8,56,-99.99,,,-99.99,WSDL version 420,2013-12-01 10:03:00,
2013-12-01 05:08:00,30.7,18.4,-100.00,SSW,207,3.6,4.7,56,0.00,,,0.00,WSDL version 420,2013-12-01 10:08:00,
2013-12-01 05:18:00,30.7,18.4,29.32,SSW,203,2.4,4.3,56,0.00,,,0.00,WSDL version 420,2013-12-01 10:18:00,
2013-12-01 05:23:00,30.7,18.4,-100.00,WSW,248,3.0,3.6,56,0.00,,,0.00,WSDL version 420,2013-12-01 10:23:00,
2013-12-01 05:30:00,30.7,18.4,29.29,SW,233,3.0,5.6,56,0.00,,,0.00,WSDL version 420,2013-12-01 10:30:00,
2013-12-01 05:36:00,30.8,18.5,29.29,SW,221,2.4,5.6,56,0.00,,,0.00,WSDL version 420,2013-12-01 10:36:00,
2013-12-01 05:43:00,30.7,18.4,29.29,WSW,248,2.9,4.0,56,0.00,,,0.00,WSDL version 420,2013-12-01 10:43:00,
2013-12-01 05:51:00,30.7,18.8,-100.00,WSW,248,2.4,4.9,57,0.00,,,0.00,WSDL version 420,2013-12-01 10:51:00,
2013-12-01 05:59:00,30.7,18.8,-100.00,WSW,255,2.9,5.6,57,0.00,,,0.00,WSDL version 420,2013-12-01 10:59:00,
2013-12-01 06:07:00,30.9,18.6,-100.00,WSW,248,3.6,5.8,56,0.00,,,0.00,WSDL version 420,2013-12-01 11:07:00,
2013-12-01 06:18:00,30.9,18.6,-100.00,SW,225,2.7,6.3,56,0.00,,,0.00,WSDL version 420,2013-12-01 11:18:00,
2013-12-01 06:23:00,30.9,18.6,29.26,SW,225,2.9,4.3,56,0.00,,,0.00,WSDL version 420,2013-12-01 11:23:00,
2013-12-01 06:29:00,30.9,18.6,29.26,SW,225,3.1,4.7,56,0.00,,,0.00,WSDL version 420,2013-12-01 11:29:00,
2013-12-01 06:35:00,30.9,18.6,29.26,WSW,243,3.5,5.8,56,0.00,,,0.00,WSDL version 420,2013-12-01 11:35:00,
2013-12-01 06:43:00,30.9,18.6,-100.00,WSW,248,2.7,6.0,56,0.00,,,0.00,WSDL version 420,2013-12-01 11:43:00,
2013-12-01 06:49:00,30.9,19.0,29.26,SSW,198,2.7,6.0,57,0.00,,,0.00,WSDL version 420,2013-12-01 11:49:00,
2013-12-01 06:58:00,30.9,19.0,29.26,SW,216,3.1,7.8,57,0.00,,,0.00,WSDL version 420,2013-12-01 11:58:00,
2013-12-01 07:04:00,30.9,18.6,29.26,SW,214,3.2,7.8,56,0.00,,,0.00,WSDL version 420,2013-12-01 12:04:00,
2013-12-01 07:10:00,30.9,19.0,29.26,SW,236,3.6,7.2,57,0.00,,,0.00,WSDL version 420,2013-12-01 12:10:00,
2013-12-01 07:16:00,30.9,18.6,-100.00,SSW,203,2.6,5.8,56,0.00,,,0.00,WSDL version 420,2013-12-01 12:16:00,
2013-12-01 07:27:00,30.7,18.8,29.26,SSW,203,1.9,5.8,57,0.00,,,0.00,WSDL version 420,2013-12-01 12:27:00,
2013-12-01 07:32:00,30.7,18.8,29.26,SW,234,2.8,6.0,57,0.00,,,0.00,WSDL version 420,2013-12-01 12:32:00,
2013-12-01 07:38:00,30.8,18.5,-100.00,SSW,207,3.1,6.0,56,0.00,,,0.00,WSDL version 420,2013-12-01 12:38:00,
2013-12-01 07:43:00,30.9,18.6,29.26,WSW,252,3.4,5.6,56,-99.99,,,-99.99,WSDL version 420,2013-12-01 12:43:00,
2013-12-01 07:54:00,30.9,18.6,-100.00,SSW,207,3.1,5.8,56,0.00,,,0.00,WSDL version 420,2013-12-01 12:54:00,
2013-12-01 08:00:00,31.1,18.8,29.26,South,176,2.8,5.8,56,0.00,,,0.00,WSDL version 420,2013-12-01 13:00:00,
2013-12-01 08:06:00,31.1,19.0,29.26,SSW,198,2.9,4.7,57,0.00,,,0.00,WSDL version 420,2013-12-01 13:06:00,
2013-12-01 08:13:00,31.2,19.1,29.26,WSW,251,2.4,4.7,56,0.00,,,0.00,WSDL version 420,2013-12-01 13:13:00,
2013-12-01 08:18:00,31.3,19.0,29.26,SW,231,2.8,4.0,56,-99.99,,,-99.99,WSDL version 420,2013-12-01 13:18:00,
2013-12-01 08:24:00,31.5,19.4,29.26,SSW,206,2.6,6.9,57,-99.99,,,-99.99,WSDL version 420,2013-12-01 13:24:00,
2013-12-01 08:38:00,31.8,19.5,-100.00,SSW,210,2.8,6.7,56,0.00,,,0.00,WSDL version 420,2013-12-01 13:38:00,
2013-12-01 09:47:00,33.4,18.6,29.26,South,188,2.8,5.4,54,-99.99,,,-99.99,WSDL version 420,2013-12-01 14:47:00,
2013-12-01 09:58:00,33.6,18.5,-100.00,SSW,203,3.6,5.6,54,-99.99,,,-99.99,WSDL version 420,2013-12-01 14:58:00,
2013-12-01 10:03:00,33.6,18.3,29.26,SW,214,2.7,6.0,53,0.00,,,0.00,WSDL version 420,2013-12-01 15:03:00,
2013-12-01 10:21:00,34.0,18.7,29.26,SW,225,2.5,5.4,53,0.00,,,0.00,WSDL version 420,2013-12-01 15:21:00,
2013-12-01 10:34:00,34.0,18.7,-100.00,North,-999,-999.0,-999.0,53,-99.99,,,-99.99,WSDL version 420,2013-12-01 15:34:00,
2013-12-01 10:40:00,34.0,18.7,29.26,WSW,251,2.5,4.0,53,0.00,,,0.00,WSDL version 420,2013-12-01 15:40:00,
2013-12-01 10:54:00,34.9,19.5,29.23,WSW,241,1.7,3.4,53,0.00,,,0.00,WSDL version 420,2013-12-01 15:54:00,
2013-12-01 11:00:00,35.1,19.7,29.23,SSW,209,1.6,3.6,53,0.00,,,0.00,WSDL version 420,2013-12-01 16:00:00,
2013-12-01 11:10:00,35.6,19.7,29.23,West,275,1.4,4.0,52,0.00,,,0.00,WSDL version 420,2013-12-01 16:10:00,
2013-12-01 11:16:00,36.1,20.2,29.23,SW,233,2.6,3.8,52,-99.99,,,-99.99,WSDL version 420,2013-12-01 16:16:00,
2013-12-01 11:22:00,36.4,20.1,29.23,SSW,203,2.9,5.6,51,0.00,,,0.00,WSDL version 420,2013-12-01 16:22:00,
2013-12-01 11:28:00,36.6,20.2,29.23,SSW,212,2.6,5.8,51,-99.99,,,-99.99,WSDL version 420,2013-12-01 16:28:00,
2013-12-01 11:34:00,36.8,20.4,29.23,WSW,248,3.1,4.3,51,0.00,,,0.00,WSDL version 420,2013-12-01 16:34:00,
2013-12-01 11:40:00,37.0,20.3,29.21,WSW,248,2.9,4.3,50,0.00,,,0.00,WSDL version 420,2013-12-01 16:40:00,
2013-12-01 11:56:00,38.2,21.2,29.21,SSW,195,2.1,4.0,50,0.00,,,0.00,WSDL version 420,2013-12-01 16:56:00,
2013-12-01 12:02:00,38.7,21.2,29.21,WSW,239,3.3,4.0,49,0.00,,,0.00,WSDL version 420,2013-12-01 17:02:00,
2013-12-01 12:08:00,39.0,21.4,29.18,SSW,206,1.9,2.9,48,0.00,,,0.00,WSDL version 420,2013-12-01 17:08:00,
2013-12-01 12:22:00,39.9,21.3,29.21,South,184,2.0,3.4,47,0.00,,,0.00,WSDL version 420,2013-12-01 17:22:00,
2013-12-01 13:23:00,39.9,21.3,29.21,SSW,203,2.3,2.9,47,0.00,,,0.00,WSDL version 420,2013-12-01 18:23:00,
2013-12-01 13:28:00,39.9,21.1,-100.00,WSW,248,2.0,2.9,47,0.00,,,0.00,WSDL version 420,2013-12-01 18:28:00,
2013-12-01 13:33:00,39.9,21.1,29.21,SSW,208,2.2,3.1,46,0.00,,,0.00,WSDL version 420,2013-12-01 18:33:00,
2013-12-01 13:41:00,39.7,21.2,29.18,SSW,203,2.2,3.4,47,-99.99,,,-99.99,WSDL version 420,2013-12-01 18:41:00,
2013-12-01 13:48:00,39.6,21.0,29.18,SW,221,1.3,3.4,47,-99.99,,,-99.99,WSDL version 420,2013-12-01 18:48:00,
2013-12-01 13:54:00,39.6,21.0,29.18,SW,225,1.6,3.1,47,-99.99,,,-99.99,WSDL version 420,2013-12-01 18:54:00,
2013-12-01 14:00:00,39.4,20.8,29.18,SSW,203,1.1,2.5,47,0.04,,,0.04,WSDL version 420,2013-12-01 19:00:00,
2013-12-01 14:21:00,39.4,21.8,-100.00,SSW,203,0.9,2.0,49,-99.99,,,-99.99,WSDL version 420,2013-12-01 19:21:00,
2013-12-01 14:27:00,39.2,21.7,29.18,SSW,203,0.6,1.6,49,-99.99,,,-99.99,WSDL version 420,2013-12-01 19:27:00,
2013-12-01 14:32:00,39.2,21.7,29.18,SSW,203,1.2,2.5,49,0.04,,,0.04,WSDL version 420,2013-12-01 19:32:00,
2013-12-01 14:45:00,39.1,21.6,29.18,SSW,203,1.3,2.5,49,0.00,,,0.04,WSDL version 420,2013-12-01 19:45:00,
2013-12-01 14:51:00,39.1,21.6,29.18,SSW,203,1.3,2.5,49,0.00,,,0.04,WSDL version 420,2013-12-01 19:51:00,
2013-12-01 14:55:00,39.0,21.5,29.21,SSW,203,0.9,2.5,49,-99.99,,,-99.99,WSDL version 420,2013-12-01 19:55:00,
2013-12-01 15:10:00,39.0,22.0,-100.00,SSW,203,1.6,2.2,50,-99.99,,,-99.99,WSDL version 420,2013-12-01 20:10:00,
2013-12-01 15:16:00,39.0,22.0,29.18,SSW,203,1.0,2.2,50,0.00,,,0.04,WSDL version 420,2013-12-01 20:16:00,
2013-12-01 15:22:00,39.0,22.0,29.21,SSW,203,1.7,2.5,50,0.00,,,0.04,WSDL version 420,2013-12-01 20:22:00,
2013-12-01 15:34:00,38.7,21.6,29.21,SSW,203,1.1,1.3,50,0.00,,,0.04,WSDL version 420,2013-12-01 20:34:00,
2013-12-01 15:46:00,38.5,21.5,29.23,SSW,203,1.1,1.3,50,0.00,,,0.04,WSDL version 420,2013-12-01 20:46:00,
2013-12-01 15:58:00,38.1,21.6,-100.00,SW,225,1.9,1.9,51,0.00,,,0.04,WSDL version 420,2013-12-01 20:58:00,
2013-12-01 16:04:00,38.0,21.9,29.21,SW,214,1.3,2.9,52,0.00,,,0.04,WSDL version 420,2013-12-01 21:04:00,
2013-12-01 16:10:00,37.6,21.6,29.21,SSW,210,0.6,2.0,52,0.00,,,0.04,WSDL version 420,2013-12-01 21:10:00,
2013-12-01 16:16:00,37.6,21.9,29.21,SSW,203,0.0,2.2,53,0.00,,,0.04,WSDL version 420,2013-12-01 21:16:00,
2013-12-01 16:22:00,37.4,21.8,29.21,SSW,203,0.0,2.2,53,0.00,,,0.04,WSDL version 420,2013-12-01 21:22:00,
2013-12-01 16:29:00,37.1,21.9,29.21,SSW,203,0.0,0.0,54,-99.99,,,-99.99,WSDL version 420,2013-12-01 21:29:00,
2013-12-01 16:38:00,36.9,22.8,29.21,SSW,203,0.8,2.2,57,0.00,,,0.04,WSDL version 420,2013-12-01 21:38:00,
2013-12-01 16:45:00,36.6,22.8,29.21,SSW,203,0.0,1.6,57,0.00,,,0.04,WSDL version 420,2013-12-01 21:45:00,
2013-12-01 16:50:00,36.4,22.8,29.21,SSW,203,0.0,0.0,58,0.00,,,0.04,WSDL version 420,2013-12-01 21:50:00,
2013-12-01 16:56:00,36.2,22.9,29.21,SSW,203,0.0,0.0,58,0.00,,,0.04,WSDL version 420,2013-12-01 21:56:00,
2013-12-01 17:02:00,36.0,23.6,29.21,SSW,203,0.0,0.9,60,0.00,,,0.04,WSDL version 420,2013-12-01 22:02:00,
2013-12-01 17:08:00,35.7,22.9,29.21,SSW,203,0.0,0.9,60,0.00,,,0.04,WSDL version 420,2013-12-01 22:08:00,
2013-12-01 17:14:00,35.4,23.6,29.21,SSW,203,0.0,0.0,62,0.00,,,0.04,WSDL version 420,2013-12-01 22:14:00,
2013-12-01 17:20:00,35.2,23.9,29.21,SSW,203,0.0,0.0,63,0.00,,,0.04,WSDL version 420,2013-12-01 22:20:00,
2013-12-01 17:30:00,34.9,24.7,29.21,SSW,203,0.0,0.0,66,0.00,,,0.04,WSDL version 420,2013-12-01 22:30:00,
2013-12-01 17:41:00,34.7,24.1,29.21,SSW,203,0.0,1.1,65,0.00,,,0.04,WSDL version 420,2013-12-01 22:41:00,
2013-12-01 17:47:00,34.7,24.1,29.21,SSW,203,0.0,1.3,65,0.00,,,0.04,WSDL version 420,2013-12-01 22:47:00,
2013-12-01 18:01:00,34.5,25.4,-100.00,SSW,203,0.0,2.0,69,0.00,,,0.04,WSDL version 420,2013-12-01 23:01:00,
2013-12-01 18:07:00,34.5,25.6,29.21,SSW,203,0.0,2.0,70,0.00,,,0.04,WSDL version 420,2013-12-01 23:07:00,
2013-12-01 18:13:00,34.5,25.8,29.21,SSW,203,0.0,0.0,71,0.00,,,0.04,WSDL version 420,2013-12-01 23:13:00,
2013-12-01 18:19:00,34.3,25.9,29.21,SSW,203,0.0,0.0,71,0.00,,,0.04,WSDL version 420,2013-12-01 23:19:00,
2013-12-01 18:25:00,34.3,26.3,29.21,SSW,203,0.0,1.3,72,0.04,,,0.08,WSDL version 420,2013-12-01 23:25:00,
2013-12-01 18:31:00,34.5,26.4,29.21,SSW,203,0.1,2.0,72,0.04,,,0.08,WSDL version 420,2013-12-01 23:31:00,
2013-12-01 18:36:00,34.5,26.8,29.21,SSW,203,0.0,2.0,73,0.04,,,0.08,WSDL version 420,2013-12-01 23:36:00,
2013-12-01 18:44:00,34.5,27.1,29.21,SSW,203,0.0,2.0,74,0.04,,,0.08,WSDL version 420,2013-12-01 23:44:00,
2013-12-01 18:50:00,34.5,27.1,29.21,SSW,203,0.0,0.0,74,-99.99,,,-99.99,WSDL version 420,2013-12-01 23:50:00,
2013-12-01 18:56:00,34.5,27.4,29.21,SSW,203,0.0,0.0,75,0.04,,,0.08,WSDL version 420,2013-12-01 23:56:00,
2013-12-01 19:02:00,34.5,27.4,29.21,SSW,203,0.0,0.0,75,0.04,,,0.08,WSDL version 420,2013-12-02 00:02:00,
2013-12-01 19:08:00,34.5,27.4,-100.00,SSW,203,0.0,0.0,75,0.04,,,0.08,WSDL version 420,2013-12-02 00:08:00,
2013-12-01 19:15:00,34.5,27.7,29.21,SSW,203,0.0,0.0,76,0.04,,,0.08,WSDL version 420,2013-12-02 00:15:00,
2013-12-01 19:21:00,34.5,27.8,29.21,SSW,203,0.0,0.0,77,0.04,,,0.08,WSDL version 420,2013-12-02 00:21:00,
2013-12-01 19:27:00,34.5,27.8,29.21,SSW,203,0.0,0.0,77,0.00,,,0.08,WSDL version 420,2013-12-02 00:27:00,
2013-12-01 19:33:00,34.5,28.1,29.21,SSW,203,0.0,2.0,77,0.00,,,0.08,WSDL version 420,2013-12-02 00:33:00,
2013-12-01 19:39:00,34.5,28.1,29.18,SSW,203,0.0,2.0,77,0.00,,,0.08,WSDL version 420,2013-12-02 00:39:00,
2013-12-01 19:45:00,34.5,28.1,29.18,SSW,203,0.9,1.1,77,0.00,,,0.08,WSDL version 420,2013-12-02 00:45:00,
2013-12-01 19:54:00,34.5,28.4,29.18,SSW,203,0.0,1.1,78,0.00,,,0.08,WSDL version 420,2013-12-02 00:54:00,
2013-12-01 19:59:00,34.5,28.7,29.18,SSW,203,0.9,1.1,79,0.00,,,0.08,WSDL version 420,2013-12-02 00:59:00,
2013-12-01 20:05:00,34.5,28.7,29.18,SSW,203,0.0,1.1,79,-99.99,,,-99.99,WSDL version 420,2013-12-02 01:05:00,
2013-12-01 20:14:00,34.5,28.7,29.18,SSW,203,0.0,0.9,79,0.00,,,0.08,WSDL version 420,2013-12-02 01:14:00,
2013-12-01 20:20:00,34.5,28.7,-100.00,SSW,203,0.4,1.1,79,0.00,,,0.08,WSDL version 420,2013-12-02 01:20:00,
2013-12-01 20:26:00,34.5,28.7,29.15,SSW,203,0.0,1.1,79,-99.99,,,-99.99,WSDL version 420,2013-12-02 01:26:00,
2013-12-01 20:34:00,34.5,28.7,29.15,SSW,203,0.0,0.0,79,-99.99,,,-99.99,WSDL version 420,2013-12-02 01:34:00,
2013-12-01 20:41:00,34.3,28.7,-100.00,SSW,203,0.0,0.0,80,0.00,,,0.08,WSDL version 420,2013-12-02 01:41:00,
2013-12-01 20:46:00,34.3,28.8,29.15,SSW,203,0.0,0.0,80,0.00,,,0.08,WSDL version 420,2013-12-02 01:46:00,
2013-12-01 20:52:00,34.4,28.9,29.15,SSW,203,0.8,2.2,80,0.00,,,0.08,WSDL version 420,2013-12-02 01:52:00,
2013-12-01 20:58:00,34.5,29.2,29.15,SSW,203,1.3,2.9,81,-99.99,,,-99.99,WSDL version 420,2013-12-02 01:58:00,
2013-12-01 21:04:00,34.5,29.3,29.15,SSW,203,0.0,2.9,81,0.00,,,0.08,WSDL version 420,2013-12-02 02:04:00,
2013-12-01 21:10:00,34.5,29.3,-100.00,SSW,203,0.0,0.0,81,0.00,,,0.08,WSDL version 420,2013-12-02 02:10:00,
2013-12-01 21:16:00,34.5,29.3,29.15,SSW,203,0.0,0.0,81,0.00,,,0.08,WSDL version 420,2013-12-02 02:16:00,
2013-12-01 21:21:00,34.5,29.3,29.15,SSW,203,0.0,0.0,81,0.00,,,0.08,WSDL version 420,2013-12-02 02:21:00,
2013-12-01 21:28:00,34.5,29.3,29.15,SW,219,0.3,0.0,81,-99.99,,,-99.99,WSDL version 420,2013-12-02 02:28:00,
2013-12-01 21:34:00,34.6,29.4,29.15,SW,225,1.8,2.7,81,0.00,,,0.08,WSDL version 420,2013-12-02 02:34:00,
2013-12-01 21:40:00,34.7,29.8,-100.00,SW,214,0.0,2.7,82,0.00,,,0.08,WSDL version 420,2013-12-02 02:40:00,
2013-12-01 21:46:00,34.7,29.8,29.15,SSW,203,0.0,2.5,82,-99.99,,,-99.99,WSDL version 420,2013-12-02 02:46:00,
2013-12-01 21:53:00,34.7,29.8,29.15,SSW,203,0.4,0.0,82,0.00,,,0.08,WSDL version 420,2013-12-02 02:53:00,
2013-12-01 22:01:00,34.6,29.8,29.15,SSW,212,0.0,0.9,82,0.00,,,0.08,WSDL version 420,2013-12-02 03:01:00,
2013-12-01 22:07:00,34.6,30.0,29.15,SSW,203,0.0,0.9,83,0.00,,,0.08,WSDL version 420,2013-12-02 03:07:00,
2013-12-01 22:14:00,34.5,30.0,-100.00,SSW,203,0.0,0.0,83,0.00,,,0.08,WSDL version 420,2013-12-02 03:14:00,
2013-12-01 22:21:00,34.5,29.7,29.15,SW,225,0.6,2.2,82,0.00,,,0.08,WSDL version 420,2013-12-02 03:21:00,
2013-12-01 22:27:00,34.7,29.9,-100.00,SW,225,0.0,1.1,83,-99.99,,,-99.99,WSDL version 420,2013-12-02 03:27:00,
2013-12-01 22:34:00,34.7,30.2,-100.00,SW,216,0.4,1.6,83,0.00,,,0.08,WSDL version 420,2013-12-02 03:34:00,
2013-12-01 22:40:00,34.7,30.2,-100.00,SW,225,0.7,3.8,83,0.00,,,0.08,WSDL version 420,2013-12-02 03:40:00,
2013-12-01 22:51:00,34.9,30.7,29.15,SSW,203,0.0,2.5,84,0.00,,,0.08,WSDL version 420,2013-12-02 03:51:00,
2013-12-01 22:57:00,34.9,30.7,29.15,SW,216,1.3,2.2,84,0.00,,,0.08,WSDL version 420,2013-12-02 03:57:00,
2013-12-01 23:05:00,34.9,30.7,-100.00,WSW,248,0.0,2.2,84,-99.99,,,-99.99,WSDL version 420,2013-12-02 04:05:00,
2013-12-01 23:12:00,34.9,30.3,29.15,WSW,248,0.7,2.7,83,0.00,,,0.08,WSDL version 420,2013-12-02 04:12:00,
2013-12-01 23:18:00,34.9,30.7,-100.00,WSW,248,0.3,3.1,84,0.00,,,0.08,WSDL version 420,2013-12-02 04:18:00,
2013-12-01 23:24:00,34.9,30.7,29.15,SSW,210,0.7,3.1,84,0.00,,,0.08,WSDL version 420,2013-12-02 04:24:00,
2013-12-01 23:29:00,34.9,30.7,29.15,WSW,248,0.2,2.9,84,-99.99,,,-99.99,WSDL version 420,2013-12-02 04:29:00,
2013-12-01 23:41:00,35.1,31.2,29.15,SW,225,0.0,2.0,86,0.00,,,0.08,WSDL version 420,2013-12-02 04:41:00,
2013-12-01 23:47:00,35.1,31.0,-100.00,SW,225,0.0,1.6,84,0.00,,,0.08,WSDL version 420,2013-12-02 04:47:00,
2013-12-01 23:54:00,35.1,30.9,-100.00,WSW,248,0.8,2.5,84,0.00,,,0.08,WSDL version 420,2013-12-02 04:54:00,